Time,TemperatureF,DewpointF,PressureIn,WindDirection,WindDirectionDegrees,WindSpeedMPH,WindSpeedGustMPH,Humidity,HourlyPrecipIn,Conditions,Clouds,dailyrainin,SoftwareType,DateUTC
2013-03-10 00:07:00,40.9,32.6,29.91,SE,140,11.0,11.0,72,0.00,,,0.00,Wunderground v.1.15,2013-03-10 05:07:00,
2013-03-10 00:17:00,40.9,32.6,29.91,SSE,150,12.0,12.0,72,0.00,,,0.00,Wunderground v.1.15,2013-03-10 05:17:00,
2013-03-10 00:27:00,41.2,32.5,29.90,SSE,158,10.0,10.0,71,0.00,,,0.00,Wunderground v.1.15,2013-03-10 05:27:00,
2013-03-10 00:37:00,41.5,32.4,29.90,SE,138,10.0,10.0,70,0.00,,,0.00,Wunderground v.1.15,2013-03-10 05:37:00,
2013-03-10 00:47:00,40.6,32.3,29.90,SSE,148,10.0,10.0,72,0.00,,,0.00,Wunderground v.1.15,2013-03-10 05:47:00,
2013-03-10 00:57:00,40.8,32.5,29.89,SSE,149,10.0,10.0,72,0.00,,,0.00,Wunderground v.1.15,2013-03-10 05:57:00,
2013-03-10 01:07:00,40.9,32.2,29.89,SSE,152,9.0,10.0,71,0.00,,,0.00,Wunderground v.1.15,2013-03-10 06:07:00,
2013-03-10 01:17:00,40.9,32.2,29.88,SE,144,9.0,9.0,71,0.00,,,0.00,Wunderground v.1.15,2013-03-10 06:17:00,
2013-03-10 01:27:00,41.2,32.2,29.88,SE,146,9.0,10.0,70,0.00,,,0.00,Wunderground v.1.15,2013-03-10 06:27:00,
2013-03-10 01:37:00,41.3,32.2,29.88,SE,139,8.0,10.0,70,0.00,,,0.00,Wunderground v.1.15,2013-03-10 06:37:00,
2013-03-10 01:47:00,41.3,32.2,29.87,SE,136,8.0,8.0,70,0.00,,,0.00,Wunderground v.1.15,2013-03-10 06:47:00,
2013-03-10 01:57:00,41.5,32.1,29.87,SSE,150,10.0,12.0,69,0.00,,,0.00,Wunderground v.1.15,2013-03-10 06:57:00,
2013-03-10 03:07:00,42.2,32.4,29.87,SE,144,12.0,12.0,68,0.00,,,0.00,Wunderground v.1.15,2013-03-10 07:07:00,
2013-03-10 03:17:00,42.2,32.4,29.86,SSE,154,11.0,12.0,68,0.00,,,0.00,Wunderground v.1.15,2013-03-10 07:17:00,
2013-03-10 03:27:00,42.1,32.3,29.86,SSE,153,12.0,12.0,68,0.00,,,0.00,Wunderground v.1.15,2013-03-10 07:27:00,
2013-03-10 03:37:00,41.9,32.1,29.86,SE,144,11.0,13.0,68,0.00,,,0.00,Wunderground v.1.15,2013-03-10 07:37:00,
2013-03-10 03:47:00,42.2,32.0,29.84,SSE,161,11.0,12.0,67,0.00,,,0.00,Wunderground v.1.15,2013-03-10 07:47:00,
2013-03-10 03:57:00,42.2,32.4,29.84,SE,146,11.0,11.0,68,0.00,,,0.00,Wunderground v.1.15,2013-03-10 07:57:00,
2013-03-10 04:07:00,42.2,32.4,29.84,SSE,149,11.0,12.0,68,0.00,,,0.00,Wunderground v.1.15,2013-03-10 08:07:00,
2013-03-10 04:17:00,42.1,32.3,29.84,SSE,148,11.0,12.0,68,0.00,,,0.00,Wunderground v.1.15,2013-03-10 08:17:00,
2013-03-10 04:27:00,42.3,32.1,29.83,SSE,154,10.0,10.0,67,0.00,,,0.00,Wunderground v.1.15,2013-03-10 08:27:00,
2013-03-10 04:37:00,42.5,32.3,29.83,SSE,159,10.0,10.0,67,0.00,,,0.00,Wunderground v.1.15,2013-03-10 08:37:00,
2013-03-10 04:47:00,42.6,32.4,29.83,SSE,158,9.0,9.0,67,0.00,,,0.00,Wunderground v.1.15,2013-03-10 08:47:00,
2013-03-10 04:57:00,42.3,32.5,29.84,South,183,7.0,9.0,68,0.00,,,0.00,Wunderground v.1.15,2013-03-10 08:57:00,
2013-03-10 05:07:00,42.8,32.2,29.84,South,169,8.0,8.0,66,0.00,,,0.00,Wunderground v.1.15,2013-03-10 09:07:00,
2013-03-10 05:17:00,42.8,32.2,29.84,South,171,9.0,9.0,66,0.00,,,0.00,Wunderground v.1.15,2013-03-10 09:17:00,
2013-03-10 05:27:00,43.3,32.3,29.84,South,180,8.0,13.0,65,0.00,,,0.00,Wunderground v.1.15,2013-03-10 09:27:00,
2013-03-10 05:37:00,43.6,32.2,29.84,South,187,8.0,9.0,64,0.00,,,0.00,Wunderground v.1.15,2013-03-10 09:37:00,
2013-03-10 05:47:00,43.3,32.3,29.84,South,178,7.0,7.0,65,0.00,,,0.00,Wunderground v.1.15,2013-03-10 09:47:00,
2013-03-10 05:57:00,43.3,32.7,29.84,South,175,8.0,8.0,66,0.00,,,0.00,Wunderground v.1.15,2013-03-10 09:57:00,
2013-03-10 06:07:00,44.1,33.1,29.84,South,188,8.0,8.0,65,0.00,,,0.00,Wunderground v.1.15,2013-03-10 10:07:00,
2013-03-10 06:17:00,44.1,33.1,29.84,South,176,7.0,7.0,65,0.00,,,0.00,Wunderground v.1.15,2013-03-10 10:17:00,
2013-03-10 06:27:00,43.3,32.7,29.83,South,173,6.0,6.0,66,0.00,,,0.00,Wunderground v.1.15,2013-03-10 10:27:00,
2013-03-10 06:37:00,42.5,33.4,29.83,SSE,160,7.0,7.0,70,0.00,,,0.00,Wunderground v.1.15,2013-03-10 10:37:00,
2013-03-10 06:47:00,42.6,34.2,29.83,South,179,7.0,7.0,72,0.00,,,0.00,Wunderground v.1.15,2013-03-10 10:47:00,
2013-03-10 06:57:00,42.6,36.2,29.84,South,176,6.0,7.0,78,0.21,,,0.03,Wunderground v.1.15,2013-03-10 10:57:00,
2013-03-10 07:07:00,41.8,37.0,29.84,South,180,5.0,5.0,83,0.20,,,0.06,Wunderground v.1.15,2013-03-10 11:07:00,
2013-03-10 07:17:00,40.5,36.3,29.84,SSE,166,5.0,5.0,85,0.16,,,0.08,Wunderground v.1.15,2013-03-10 11:17:00,
2013-03-10 07:27:00,40.1,36.8,29.84,SSE,165,6.0,8.0,88,0.05,,,0.08,Wunderground v.1.15,2013-03-10 11:27:00,
2013-03-10 07:37:00,39.9,36.6,29.84,SSE,164,9.0,9.0,88,0.00,,,0.08,Wunderground v.1.15,2013-03-10 11:37:00,
2013-03-10 07:47:00,39.9,36.9,29.85,SSE,166,9.0,9.0,89,0.12,,,0.10,Wunderground v.1.15,2013-03-10 11:47:00,
2013-03-10 07:57:00,39.9,37.5,29.85,South,173,9.0,9.0,91,0.10,,,0.12,Wunderground v.1.15,2013-03-10 11:57:00,
2013-03-10 08:07:00,39.9,38.0,29.85,South,173,8.0,8.0,93,0.28,,,0.16,Wunderground v.1.15,2013-03-10 12:07:00,
2013-03-10 08:17:00,40.8,39.5,29.84,SW,219,8.0,11.0,95,0.05,,,0.16,Wunderground v.1.15,2013-03-10 12:17:00,
2013-03-10 08:27:00,41.6,40.3,29.84,South,180,9.0,9.0,95,0.05,,,0.17,Wunderground v.1.15,2013-03-10 12:27:00,
2013-03-10 08:37:00,42.1,41.0,29.84,South,190,9.0,9.0,96,0.00,,,0.17,Wunderground v.1.15,2013-03-10 12:37:00,
2013-03-10 08:47:00,42.6,41.8,29.83,SSW,207,7.0,9.0,97,0.00,,,0.18,Wunderground v.1.15,2013-03-10 12:47:00,
2013-03-10 08:57:00,43.1,42.0,29.83,South,186,10.0,10.0,96,0.06,,,0.19,Wunderground v.1.15,2013-03-10 12:57:00,
2013-03-10 09:07:00,42.9,41.8,29.83,South,170,8.0,10.0,96,0.00,,,0.19,Wunderground v.1.15,2013-03-10 13:07:00,
2013-03-10 09:17:00,42.1,41.0,29.82,SSE,164,6.0,6.0,96,0.00,,,0.19,Wunderground v.1.15,2013-03-10 13:17:00,
2013-03-10 09:27:00,41.8,40.7,29.82,SSE,163,5.0,6.0,96,0.00,,,0.20,Wunderground v.1.15,2013-03-10 13:27:00,
2013-03-10 09:37:00,41.1,40.3,29.82,South,173,5.0,6.0,97,0.00,,,0.20,Wunderground v.1.15,2013-03-10 13:37:00,
2013-03-10 09:47:00,41.1,40.3,29.83,SE,142,6.0,8.0,97,0.00,,,0.20,Wunderground v.1.15,2013-03-10 13:47:00,
2013-03-10 09:57:00,41.3,40.5,29.82,SE,134,6.0,9.0,97,0.00,,,0.20,Wunderground v.1.15,2013-03-10 13:57:00,
2013-03-10 10:07:00,41.5,40.7,29.82,SE,134,6.0,7.0,97,0.00,,,0.20,Wunderground v.1.15,2013-03-10 14:07:00,
2013-03-10 10:17:00,41.6,40.8,29.81,ESE,123,6.0,6.0,97,0.00,,,0.20,Wunderground v.1.15,2013-03-10 14:17:00,
2013-03-10 10:27:00,41.5,40.4,29.81,SSE,147,6.0,6.0,96,0.00,,,0.20,Wunderground v.1.15,2013-03-10 14:27:00,
2013-03-10 10:37:00,41.6,40.0,29.81,SSE,166,8.0,8.0,94,0.00,,,0.20,Wunderground v.1.15,2013-03-10 14:37:00,
2013-03-10 10:47:00,41.6,39.4,29.81,SSE,156,7.0,7.0,92,0.00,,,0.20,Wunderground v.1.15,2013-03-10 14:47:00,
2013-03-10 10:57:00,42.1,39.7,29.81,SSE,163,7.0,7.0,91,0.00,,,0.20,Wunderground v.1.15,2013-03-10 14:57:00,
2013-03-10 11:07:00,42.5,39.8,29.81,South,169,5.0,5.0,90,0.00,,,0.20,Wunderground v.1.15,2013-03-10 15:07:00,
2013-03-10 11:17:00,42.8,39.8,29.81,South,191,4.0,5.0,89,0.00,,,0.20,Wunderground v.1.15,2013-03-10 15:17:00,
2013-03-10 11:27:00,42.8,39.5,29.81,South,190,4.0,4.0,88,0.00,,,0.20,Wunderground v.1.15,2013-03-10 15:27:00,
2013-03-10 11:37:00,42.9,39.6,29.81,South,190,3.0,3.0,88,0.00,,,0.20,Wunderground v.1.15,2013-03-10 15:37:00,
2013-03-10 11:47:00,43.5,39.9,29.81,SSE,153,6.0,7.0,87,0.00,,,0.20,Wunderground v.1.15,2013-03-10 15:47:00,
2013-03-10 11:57:00,43.9,40.3,29.81,SSE,155,6.0,6.0,87,0.00,,,0.20,Wunderground v.1.15,2013-03-10 15:57:00,
2013-03-10 12:07:00,44.3,40.4,29.81,South,171,5.0,7.0,86,0.00,,,0.20,Wunderground v.1.15,2013-03-10 16:07:00,
2013-03-10 12:17:00,44.8,40.3,29.81,SSE,156,7.0,8.0,84,0.00,,,0.20,Wunderground v.1.15,2013-03-10 16:17:00,
2013-03-10 12:27:00,45.2,40.3,29.81,SSE,166,7.0,7.0,83,0.00,,,0.20,Wunderground v.1.15,2013-03-10 16:27:00,
2013-03-10 12:37:00,45.2,40.3,29.81,South,169,6.0,6.0,83,0.00,,,0.20,Wunderground v.1.15,2013-03-10 16:37:00,
2013-03-10 12:47:00,45.4,40.5,29.82,South,182,5.0,5.0,83,0.00,,,0.20,Wunderground v.1.15,2013-03-10 16:47:00,
2013-03-10 12:57:00,45.8,40.6,29.82,South,191,3.0,3.0,82,0.00,,,0.20,Wunderground v.1.15,2013-03-10 16:57:00,
2013-03-10 13:07:00,46.2,40.4,29.82,SSW,195,3.0,4.0,80,0.00,,,0.20,Wunderground v.1.15,2013-03-10 17:07:00,
2013-03-10 13:17:00,46.4,40.9,29.83,SSW,195,2.0,2.0,81,0.00,,,0.20,Wunderground v.1.15,2013-03-10 17:17:00,
2013-03-10 13:27:00,45.1,40.2,29.82,SSW,195,2.0,2.0,83,0.00,,,0.20,Wunderground v.1.15,2013-03-10 17:27:00,
2013-03-10 13:37:00,45.8,41.5,29.82,SSW,195,1.0,1.0,85,0.00,,,0.20,Wunderground v.1.15,2013-03-10 17:37:00,
2013-03-10 13:47:00,46.5,42.5,29.81,SSW,195,0.0,0.0,86,0.00,,,0.20,Wunderground v.1.15,2013-03-10 17:47:00,
2013-03-10 13:57:00,45.8,41.9,29.81,SSE,150,4.0,5.0,86,0.00,,,0.21,Wunderground v.1.15,2013-03-10 17:57:00,
2013-03-10 14:07:00,46.5,43.1,29.81,SSE,154,5.0,5.0,88,0.00,,,0.21,Wunderground v.1.15,2013-03-10 18:07:00,
2013-03-10 14:17:00,46.5,42.8,29.80,SSE,167,4.0,4.0,87,0.00,,,0.21,Wunderground v.1.15,2013-03-10 18:17:00,
2013-03-10 14:27:00,46.4,42.4,29.80,South,179,4.0,5.0,86,0.00,,,0.21,Wunderground v.1.15,2013-03-10 18:27:00,
2013-03-10 14:37:00,45.7,41.8,29.80,South,170,5.0,8.0,86,0.00,,,0.21,Wunderground v.1.15,2013-03-10 18:37:00,
2013-03-10 14:47:00,45.7,41.8,29.80,South,176,5.0,5.0,86,0.00,,,0.22,Wunderground v.1.15,2013-03-10 18:47:00,
2013-03-10 14:57:00,45.8,42.4,29.82,South,177,4.0,4.0,88,0.06,,,0.23,Wunderground v.1.15,2013-03-10 18:57:00,
2013-03-10 15:07:00,45.8,42.7,29.82,South,177,0.0,0.0,89,0.20,,,0.27,Wunderground v.1.15,2013-03-10 19:07:00,
2013-03-10 15:17:00,45.7,42.9,29.79,South,177,0.0,0.0,90,0.05,,,0.27,Wunderground v.1.15,2013-03-10 19:17:00,
2013-03-10 15:27:00,45.1,42.6,29.80,South,177,0.0,0.0,91,0.00,,,0.27,Wunderground v.1.15,2013-03-10 19:27:00,
2013-03-10 15:37:00,45.1,42.9,29.80,SSE,155,1.0,4.0,92,0.00,,,0.27,Wunderground v.1.15,2013-03-10 19:37:00,
2013-03-10 15:47:00,45.1,43.2,29.79,SSE,155,0.0,0.0,93,0.00,,,0.27,Wunderground v.1.15,2013-03-10 19:47:00,
2013-03-10 15:57:00,45.4,43.5,29.77,SSE,154,0.0,2.0,93,0.00,,,0.27,Wunderground v.1.15,2013-03-10 19:57:00,
2013-03-10 16:07:00,46.1,44.5,29.77,ENE,64,3.0,3.0,94,0.00,,,0.27,Wunderground v.1.15,2013-03-10 20:07:00,
2013-03-10 16:17:00,46.2,44.6,29.74,ENE,67,4.0,4.0,94,0.00,,,0.27,Wunderground v.1.15,2013-03-10 20:17:00,
2013-03-10 16:27:00,46.4,44.8,29.76,ENE,67,3.0,4.0,94,0.00,,,0.27,Wunderground v.1.15,2013-03-10 20:27:00,
2013-03-10 16:37:00,46.2,44.3,29.76,ENE,67,2.0,2.0,93,0.00,,,0.27,Wunderground v.1.15,2013-03-10 20:37:00,
2013-03-10 16:47:00,45.7,43.8,29.77,ENE,67,2.0,2.0,93,0.00,,,0.27,Wunderground v.1.15,2013-03-10 20:47:00,
2013-03-10 16:57:00,45.8,44.2,29.75,ENE,67,1.0,4.0,94,0.00,,,0.27,Wunderground v.1.15,2013-03-10 20:57:00,
2013-03-10 17:07:00,46.0,44.4,29.75,ENE,69,2.0,3.0,94,0.00,,,0.27,Wunderground v.1.15,2013-03-10 21:07:00,
2013-03-10 17:17:00,46.2,44.3,29.75,East,97,4.0,6.0,93,0.00,,,0.27,Wunderground v.1.15,2013-03-10 21:17:00,
2013-03-10 17:27:00,46.2,44.3,29.77,East,93,5.0,5.0,93,0.00,,,0.27,Wunderground v.1.15,2013-03-10 21:27:00,
2013-03-10 17:37:00,46.2,44.3,29.77,East,86,2.0,2.0,93,0.00,,,0.27,Wunderground v.1.15,2013-03-10 21:37:00,
2013-03-10 17:47:00,46.0,43.8,29.75,ENE,70,2.0,2.0,92,0.00,,,0.28,Wunderground v.1.15,2013-03-10 21:47:00,
2013-03-10 17:57:00,46.1,43.6,29.74,ENE,64,3.0,4.0,91,0.00,,,0.28,Wunderground v.1.15,2013-03-10 21:57:00,
2013-03-10 18:07:00,46.0,43.5,29.74,ENE,71,2.0,2.0,91,0.00,,,0.28,Wunderground v.1.15,2013-03-10 22:07:00,
2013-03-10 18:17:00,46.0,43.2,29.74,ENE,72,1.0,3.0,90,0.00,,,0.28,Wunderground v.1.15,2013-03-10 22:17:00,
2013-03-10 18:37:00,46.5,43.1,29.72,East,81,1.0,4.0,88,0.00,,,0.28,Wunderground v.1.15,2013-03-10 22:37:00,
2013-03-10 18:47:00,46.7,43.0,29.72,East,87,3.0,3.0,87,0.00,,,0.28,Wunderground v.1.15,2013-03-10 22:47:00,
2013-03-10 18:57:00,47.4,43.1,29.72,ENE,69,4.0,8.0,85,0.00,,,0.28,Wunderground v.1.15,2013-03-10 22:57:00,
2013-03-10 19:07:00,47.4,42.8,29.72,East,98,5.0,5.0,84,0.00,,,0.28,Wunderground v.1.15,2013-03-10 23:07:00,
2013-03-10 19:17:00,47.6,42.7,29.70,ESE,121,5.0,6.0,83,0.00,,,0.28,Wunderground v.1.15,2013-03-10 23:17:00,
2013-03-10 19:27:00,47.9,42.7,29.72,ESE,106,6.0,6.0,82,0.00,,,0.28,Wunderground v.1.15,2013-03-10 23:27:00,
2013-03-10 19:37:00,48.0,42.4,29.72,ESE,111,6.0,6.0,81,0.00,,,0.28,Wunderground v.1.15,2013-03-10 23:37:00,
2013-03-10 19:47:00,48.2,42.6,29.70,ESE,111,5.0,6.0,81,0.00,,,0.28,Wunderground v.1.15,2013-03-10 23:47:00,
2013-03-10 19:57:00,48.8,42.9,29.70,SE,129,7.0,8.0,80,0.00,,,0.28,Wunderground v.1.15,2013-03-10 23:57:00,
2013-03-10 20:07:00,49.4,42.8,29.70,SE,132,9.0,12.0,78,0.00,,,0.28,Wunderground v.1.15,2013-03-11 00:07:00,
2013-03-10 20:17:00,49.4,43.5,29.72,SE,124,9.0,11.0,80,0.08,,,0.30,Wunderground v.1.15,2013-03-11 00:17:00,
2013-03-10 20:27:00,49.6,43.4,29.70,SE,136,9.0,9.0,79,0.05,,,0.30,Wunderground v.1.15,2013-03-11 00:27:00,
2013-03-10 20:37:00,49.4,43.2,29.70,SE,139,7.0,7.0,79,0.00,,,0.30,Wunderground v.1.15,2013-03-11 00:37:00,
2013-03-10 20:47:00,48.5,42.6,29.71,SSE,148,7.0,9.0,80,0.00,,,0.30,Wunderground v.1.15,2013-03-11 00:47:00,
2013-03-10 20:57:00,47.3,42.7,29.72,SSE,153,7.0,8.0,84,0.13,,,0.32,Wunderground v.1.15,2013-03-11 00:57:00,
2013-03-10 21:07:00,47.4,43.4,29.72,SE,146,9.0,9.0,86,0.08,,,0.33,Wunderground v.1.15,2013-03-11 01:07:00,
2013-03-10 21:17:00,48.2,43.9,29.70,SE,125,8.0,11.0,85,0.00,,,0.33,Wunderground v.1.15,2013-03-11 01:17:00,
2013-03-10 21:27:00,48.8,43.9,29.67,SE,132,10.0,10.0,83,0.00,,,0.33,Wunderground v.1.15,2013-03-11 01:27:00,
2013-03-10 21:37:00,48.5,43.3,29.67,SE,132,10.0,10.0,82,0.00,,,0.33,Wunderground v.1.15,2013-03-11 01:37:00,
2013-03-10 21:47:00,48.9,43.3,29.69,SSE,153,11.0,13.0,81,0.00,,,0.33,Wunderground v.1.15,2013-03-11 01:47:00,
2013-03-10 21:57:00,49.4,42.8,29.69,SE,142,12.0,13.0,78,0.00,,,0.33,Wunderground v.1.15,2013-03-11 01:57:00,
2013-03-10 22:07:00,49.4,42.8,29.69,SE,137,11.0,11.0,78,0.00,,,0.33,Wunderground v.1.15,2013-03-11 02:07:00,
2013-03-10 22:17:00,49.1,42.5,29.67,SE,139,11.0,14.0,78,0.00,,,0.33,Wunderground v.1.15,2013-03-11 02:17:00,
2013-03-10 22:27:00,49.2,42.6,29.67,SE,140,11.0,11.0,78,0.00,,,0.33,Wunderground v.1.15,2013-03-11 02:27:00,
2013-03-10 22:37:00,49.6,42.7,29.67,SE,141,12.0,15.0,77,0.00,,,0.33,Wunderground v.1.15,2013-03-11 02:37:00,
2013-03-10 22:47:00,49.9,43.0,29.66,ESE,121,12.0,13.0,77,0.00,,,0.33,Wunderground v.1.15,2013-03-11 02:47:00,
2013-03-10 22:57:00,49.9,42.6,29.66,SE,140,12.0,12.0,76,0.00,,,0.33,Wunderground v.1.15,2013-03-11 02:57:00,
2013-03-10 23:07:00,50.1,42.5,29.66,SSE,148,13.0,13.0,75,0.00,,,0.33,Wunderground v.1.15,2013-03-11 03:07:00,
2013-03-10 23:17:00,50.2,42.6,29.65,SSE,150,13.0,13.0,75,0.00,,,0.33,Wunderground v.1.15,2013-03-11 03:17:00,
2013-03-10 23:27:00,50.2,41.9,29.64,SE,141,13.0,13.0,73,0.00,,,0.33,Wunderground v.1.15,2013-03-11 03:27:00,
2013-03-10 23:37:00,50.2,41.5,29.64,SSE,157,12.0,12.0,72,0.00,,,0.33,Wunderground v.1.15,2013-03-11 03:37:00,
2013-03-10 23:47:00,49.6,41.3,29.65,SE,142,10.0,12.0,73,0.00,,,0.33,Wunderground v.1.15,2013-03-11 03:47:00,
2013-03-10 23:57:00,50.1,41.1,29.64,SSE,157,10.0,10.0,71,0.00,,,0.00,Wunderground v.1.15,2013-03-11 03:57:00,